UAE229 OMDB-KSEA

Flight info

Callsign UAE229
Flight time N/A
Altitude 38000
Route ANVIX R401 GIDIS G783 VAVIM DCT PEKEM DCT MEDPO DCT ITRUX Y511 PMA Z712 WEJ L677 CVO L617 NOZ L551 ANTAR DCT AKINA DCT ORTEB DCT NUBLI DCT POLON DCT PENOR DCT OSKOK DCT EVNEN DCT NONVU DCT TABEV DCT 70N000E/M084F370 75N020W 77N040W 77N060W/N0490F370 DCT N7590 DCT 69N110W 65N115W 60N120W DCT TRENA DCT ROESH MARNR8
Aircraft B77W/H-SDE1E2E3FGHIJ2J3J4J5M1RWXY/LB1D1

Departure

Time 2026-04-24 19:13
Airport Dubai International Airport (OMDB)

Arrival

Time N/A
Airport Seattle–Tacoma International Airport (KSEA)
Time Latitude Longitude Altitude Speed Heading
2026-04-24 18:54 25.24496 55.36421 31 ft 4 kts 303°
2026-04-24 18:55 25.24476 55.36458 26 ft 2 kts 302°
2026-04-24 18:57 25.24476 55.36457 30 ft 1 kts 302°
2026-04-24 18:57 25.24493 55.36428 29 ft 7 kts 301°
2026-04-24 18:57 25.24518 55.36380 26 ft 9 kts 302°
2026-04-24 18:57 25.24566 55.36296 28 ft 14 kts 302°
2026-04-24 18:58 25.24618 55.36205 30 ft 14 kts 302°
2026-04-24 18:58 25.24670 55.36113 29 ft 14 kts 302°
2026-04-24 18:58 25.24722 55.36020 28 ft 14 kts 302°
2026-04-24 18:58 25.24774 55.35927 30 ft 14 kts 302°
2026-04-24 18:59 25.24826 55.35835 29 ft 14 kts 302°
2026-04-24 18:59 25.24879 55.35743 31 ft 14 kts 305°
2026-04-24 18:59 25.24947 55.35635 31 ft 18 kts 302°
2026-04-24 18:59 25.25017 55.35517 29 ft 18 kts 301°
2026-04-24 19:00 25.25086 55.35398 30 ft 18 kts 302°
2026-04-24 19:00 25.25154 55.35278 29 ft 18 kts 302°
2026-04-24 19:00 25.25229 55.35164 28 ft 18 kts 305°
2026-04-24 19:00 25.25300 55.35047 28 ft 18 kts 300°
2026-04-24 19:01 25.25370 55.34929 30 ft 18 kts 315°
2026-04-24 19:01 25.25489 55.34912 30 ft 18 kts 22°
2026-04-24 19:01 25.25592 55.34976 28 ft 13 kts 32°
2026-04-24 19:01 25.25630 55.35003 26 ft 0 kts 32°
2026-04-24 19:02 25.25663 55.35035 29 ft 9 kts 56°
2026-04-24 19:03 25.25671 55.35103 26 ft 9 kts 82°
2026-04-24 19:03 25.25728 55.35178 29 ft 16 kts 34°
2026-04-24 19:03 25.25821 55.35243 30 ft 16 kts 31°
2026-04-24 19:03 25.25902 55.35298 29 ft 12 kts 31°
2026-04-24 19:04 25.25969 55.35354 26 ft 12 kts 49°
2026-04-24 19:04 25.26005 55.35437 27 ft 12 kts 82°
2026-04-24 19:04 25.25994 55.35528 27 ft 12 kts 116°
2026-04-24 19:04 25.25955 55.35611 28 ft 12 kts 117°
2026-04-24 19:05 25.25912 55.35692 27 ft 12 kts 122°
2026-04-24 19:05 25.25867 55.35772 28 ft 12 kts 122°
2026-04-24 19:05 25.25823 55.35851 28 ft 12 kts 122°
2026-04-24 19:05 25.25774 55.35938 28 ft 15 kts 121°
2026-04-24 19:06 25.25721 55.36033 28 ft 15 kts 122°
2026-04-24 19:06 25.25668 55.36128 28 ft 15 kts 121°
2026-04-24 19:06 25.25615 55.36224 28 ft 15 kts 121°
2026-04-24 19:06 25.25563 55.36319 28 ft 15 kts 122°
2026-04-24 19:07 25.25509 55.36414 29 ft 15 kts 122°
2026-04-24 19:07 25.25444 55.36528 29 ft 24 kts 122°
2026-04-24 19:07 25.25384 55.36635 28 ft 25 kts 122°
2026-04-24 19:07 25.25261 55.36851 29 ft 25 kts 122°
2026-04-24 19:08 25.25169 55.37012 29 ft 25 kts 122°
2026-04-24 19:08 25.25078 55.37173 30 ft 25 kts 122°
2026-04-24 19:08 25.24986 55.37335 30 ft 25 kts 122°
2026-04-24 19:08 25.24894 55.37496 30 ft 25 kts 122°
2026-04-24 19:09 25.24804 55.37658 29 ft 25 kts 120°
2026-04-24 19:09 25.24749 55.37759 29 ft 13 kts 121°
2026-04-24 19:09 25.24722 55.37832 29 ft 10 kts 87°
2026-04-24 19:09 25.24738 55.37869 29 ft 0 kts 50°
2026-04-24 19:11 25.24760 55.37893 31 ft 5 kts 41°
2026-04-24 19:11 25.24789 55.37916 32 ft 5 kts 31°
2026-04-24 19:12 25.24842 55.37922 34 ft 11 kts 340°
2026-04-24 19:12 25.24871 55.37899 35 ft 0 kts 311°
2026-04-24 19:12 25.24893 55.37868 35 ft 23 kts 306°
2026-04-24 19:13 25.25019 55.37649 35 ft 78 kts 302°
2026-04-24 19:13 25.25653 55.36514 34 ft 183 kts 302°
2026-04-24 19:13 25.26447 55.35122 372 ft 228 kts 303°
2026-04-24 19:13 25.27354 55.33601 1409 ft 232 kts 303°
2026-04-24 19:14 25.28184 55.32097 2626 ft 217 kts 301°
2026-04-24 19:14 25.28909 55.30743 3462 ft 198 kts 297°
2026-04-24 19:14 25.29191 55.29803 3779 ft 188 kts 274°
2026-04-24 19:14 25.29049 55.28387 3950 ft 186 kts 251°
2026-04-24 19:15 25.28359 55.26642 4087 ft 187 kts 249°
2026-04-24 19:15 25.27840 55.25344 4282 ft 183 kts 246°
2026-04-24 19:15 25.27289 55.24077 4404 ft 185 kts 246°
2026-04-24 19:15 25.26720 55.22756 4429 ft 196 kts 246°
2026-04-24 19:16 25.25698 55.20370 4464 ft 216 kts 246°
2026-04-24 19:16 25.25036 55.18807 4495 ft 234 kts 246°
2026-04-24 19:16 25.24095 55.17332 4349 ft 238 kts 216°
2026-04-24 19:17 25.22568 55.16700 4407 ft 247 kts 181°
2026-04-24 19:17 25.21004 55.16775 4523 ft 257 kts 177°
2026-04-24 19:17 25.19220 55.17107 4762 ft 266 kts 154°
2026-04-24 19:17 25.17790 55.18403 4992 ft 275 kts 121°
2026-04-24 19:18 25.16891 55.20297 5298 ft 282 kts 116°
2026-04-24 19:18 25.15999 55.22250 5811 ft 286 kts 117°
2026-04-24 19:18 25.15081 55.24192 6419 ft 286 kts 118°
2026-04-24 19:18 25.14147 55.26146 6974 ft 289 kts 118°
2026-04-24 19:19 25.13205 55.28120 7487 ft 292 kts 118°
2026-04-24 19:19 25.12250 55.30109 7990 ft 296 kts 118°
2026-04-24 19:19 25.11282 55.32121 8508 ft 297 kts 118°
2026-04-24 19:19 25.10331 55.34158 9023 ft 300 kts 115°
2026-04-24 19:20 25.09464 55.36269 9535 ft 302 kts 114°
2026-04-24 19:20 25.08611 55.38398 10071 ft 304 kts 115°
2026-04-24 19:20 25.07743 55.40530 10553 ft 307 kts 115°
2026-04-24 19:20 25.06864 55.42703 10896 ft 316 kts 114°
2026-04-24 19:21 25.05980 55.44989 11030 ft 332 kts 114°
2026-04-24 19:21 25.05065 55.47391 11171 ft 349 kts 114°
2026-04-24 19:21 25.04099 55.49914 11314 ft 366 kts 114°
2026-04-24 19:21 25.03083 55.52555 11460 ft 382 kts 114°
2026-04-24 19:22 25.02025 55.55292 11789 ft 392 kts 115°
2026-04-24 19:22 25.00772 55.57991 12216 ft 398 kts 121°
2026-04-24 19:22 24.99313 55.60599 12764 ft 401 kts 123°
2026-04-24 19:22 24.97814 55.63204 13385 ft 404 kts 123°
2026-04-24 19:23 24.96340 55.65849 13956 ft 407 kts 122°
2026-04-24 19:23 24.94878 55.68534 14480 ft 410 kts 122°
2026-04-24 19:23 24.93376 55.71220 14931 ft 414 kts 125°
2026-04-24 19:23 24.91709 55.73808 14890 ft 417 kts 128°
2026-04-24 19:24 24.89950 55.76359 15206 ft 420 kts 128°
2026-04-24 19:24 24.88187 55.78922 15835 ft 420 kts 128°
2026-04-24 19:24 24.86445 55.81509 16426 ft 421 kts 127°
2026-04-24 19:24 24.84710 55.84122 16927 ft 424 kts 127°
2026-04-24 19:25 24.82958 55.86756 17368 ft 429 kts 127°
2026-04-24 19:25 24.81168 55.89410 17824 ft 431 kts 128°
2026-04-24 19:25 24.79098 55.91769 18116 ft 433 kts 147°
2026-04-24 19:25 24.76402 55.93226 18483 ft 433 kts 165°
2026-04-24 19:26 24.73448 55.93801 18950 ft 432 kts 180°
2026-04-24 19:26 24.70447 55.93697 19446 ft 432 kts 185°
2026-04-24 19:26 24.67437 55.93534 19884 ft 435 kts 184°
2026-04-24 19:26 24.64402 55.93412 20307 ft 436 kts 185°
2026-04-24 19:27 24.61410 55.92937 20609 ft 437 kts 198°
2026-04-24 19:27 24.58604 55.91675 20987 ft 436 kts 211°
2026-04-24 19:27 24.56130 55.89788 21396 ft 431 kts 223°
2026-04-24 19:27 24.53895 55.87584 21724 ft 435 kts 224°
2026-04-24 19:28 24.51639 55.85345 22094 ft 437 kts 223°
2026-04-24 19:28 24.49403 55.83146 22522 ft 438 kts 223°
2026-04-24 19:28 24.47084 55.80892 22951 ft 439 kts 223°
2026-04-24 19:28 24.44784 55.78676 23357 ft 441 kts 223°
2026-04-24 19:29 24.40193 55.74274 24093 ft 444 kts 223°
2026-04-24 19:29 24.37856 55.72035 24414 ft 446 kts 223°
2026-04-24 19:29 24.35516 55.69787 24712 ft 448 kts 223°
2026-04-24 19:30 24.33168 55.67520 24981 ft 451 kts 223°
2026-04-24 19:30 24.30806 55.65239 25285 ft 453 kts 223°
2026-04-24 19:30 24.28437 55.62952 25579 ft 455 kts 223°
2026-04-24 19:30 24.26058 55.60644 25843 ft 458 kts 224°
2026-04-24 19:31 24.23774 55.58209 26120 ft 459 kts 226°
2026-04-24 19:31 24.21518 55.55715 26396 ft 461 kts 227°
2026-04-24 19:31 24.19265 55.53207 26680 ft 463 kts 227°
2026-04-24 19:31 24.16997 55.50683 26965 ft 466 kts 227°
2026-04-24 19:32 24.14720 55.48153 27244 ft 467 kts 227°
2026-04-24 19:32 24.12432 55.45616 27503 ft 469 kts 227°
2026-04-24 19:32 24.10131 55.43072 27725 ft 472 kts 226°
2026-04-24 19:32 24.07818 55.40519 27975 ft 473 kts 227°
2026-04-24 19:33 24.05494 55.37959 28234 ft 474 kts 226°
2026-04-24 19:33 24.03161 55.35390 28454 ft 477 kts 226°
2026-04-24 19:33 24.00819 55.32811 28663 ft 479 kts 226°
2026-04-24 19:33 23.98469 55.30223 28890 ft 480 kts 226°
2026-04-24 19:34 23.96107 55.27627 29069 ft 483 kts 226°
2026-04-24 19:34 23.93731 55.25018 29250 ft 485 kts 226°
2026-04-24 19:34 23.91357 55.22410 29532 ft 484 kts 226°
2026-04-24 19:34 23.88988 55.19808 29849 ft 483 kts 226°
2026-04-24 19:35 23.86617 55.17207 30162 ft 482 kts 226°
2026-04-24 19:35 23.84253 55.14614 30475 ft 480 kts 226°
2026-04-24 19:35 23.81902 55.12038 30803 ft 477 kts 227°
2026-04-24 19:35 23.79579 55.09456 30982 ft 477 kts 226°
2026-04-24 19:36 23.77225 55.06877 31189 ft 479 kts 226°
2026-04-24 19:36 23.74872 55.04316 31459 ft 478 kts 226°
2026-04-24 19:36 23.72522 55.01757 31750 ft 476 kts 226°
2026-04-24 19:36 23.70184 54.99208 31972 ft 476 kts 226°
2026-04-24 19:37 23.67839 54.96650 32099 ft 478 kts 226°
2026-04-24 19:37 23.63113 54.91501 32321 ft 481 kts 226°